[[{"header":{"parameterUnit":"m.s-1","parameterCategory":1,"la1":30.2991,"la2":30.254,"lo1":-89.0895,"lo2":-89.0444,"dy":0.0017,"dx":0.0017,"nx":28,"ny":28,"refTime":"2025-05-19T03:00:00:Z","depth":0,"parameterNumber":2,"parameterNumberName":"U-component_of_WINDS"},"data":[0,0,0,0,0,0,0,0,0,0,0,0,0,0,0,0,0,0,0,0,0,0,0,0,0,0,0,0,0,0,0,0,0,0,0,0,0,0,0,0,0,0,0,0,0,0,0,0,0,0,0,0,0,0,0,0,0,0,-0.037,-0.0368,0,-0.019,-0.0188,-0.0186,-0.0093,-0.0093,-0.0093,-0.0093,0.0092,0.0097,0.0101,0,0,0,0,0,0,0,0,0,0,0,0,0,-0.0632,-0.0627,-0.037,-0.0368,-0.0365,-0.0191,-0.0188,-0.0186,-0.0093,-0.0093,-0.0093,-0.0093,0.009,0.0096,0.0102,0,0,0,0,0,0,0,0,0,0,0,0,0,-0.0492,-0.0626,-0.037,-0.0298,-0.029,-0.0191,-0.0188,-0.0185,-0.0093,-0.0093,-0.0093,-0.0093,0.0089,0.0096,0.0103,0.0144,0,0,0.0125,0.0128,0,0,0,0,0,0,0,0,-0.05,-0.0482,-0.0311,-0.0303,-0.0293,-0.0164,-0.0213,-0.0075,-0.0093,-0.0168,-0.0093,-0.0092,0.0007,0.0021,0.0054,0.0152,0.016,0.0125,0.013,0.0133,0.0135,0,0,0,0,0,0,0,-0.051,-0.0489,-0.0299,-0.0308,-0.0298,-0.0274,-0.0254,-0.0186,-0.0084,-0.0161,-0.0154,-0.0134,0.0012,0.0047,0.0059,0.0163,0.0125,0.0132,0.0136,0.0139,0.0304,0.0304,0,0,0,0,0,0,-0.0531,-0.0498,-0.0304,-0.0293,-0.0398,-0.027,-0.0247,-0.0206,-0.0084,-0.0065,-0.0134,-0.013,0.0035,0.0051,0.0066,0.0122,0.0133,0.014,0.0144,0.0304,0.0304,0.0304,0,0,0,0,0,0,-0.0537,-0.0515,-0.0312,-0.0394,-0.0366,-0.0266,-0.0219,-0.0202,-0.0167,-0.0064,-0.0045,-0.0117,0.0035,0.0056,0.0124,0.013,0.0143,0.0149,0.0304,0.0304,0.0304,0.0235,0,0,0,0,0,0,-0.0545,-0.0517,-0.0501,-0.0394,-0.0362,-0.0257,-0.0219,-0.0199,-0.0155,-0.0148,-0.0043,-0.0025,0.0037,0.0112,0.0131,0.014,0.0155,0.0304,0.0304,0.0304,0.0237,0.0232,0.0229,0,0,0,0,0,-0.0555,-0.0527,-0.05,-0.0478,-0.0339,-0.0257,-0.0239,-0.0168,-0.0155,-0.0137,-0.0071,-0.0029,0.0126,0.0118,0.014,0.0152,0.0304,0.0304,0.0304,0.0239,0.0233,0.0229,0,0,0,0,0,0,-0.0636,-0.0512,-0.0481,-0.0418,-0.0349,-0.0242,-0.0217,-0.0176,-0.0109,-0.0105,-0.002,0.0003,0.0063,0.0114,0.0103,0.0198,0.0219,0.0224,0.0162,0.0158,0.0154,0.014,0.0161,0,0,0,0,0,-0.0647,-0.059,-0.0485,-0.044,-0.0407,-0.0319,-0.028,-0.0232,-0.0156,-0.0126,-0.0055,0.0016,0.0081,0.0122,0.0188,0.0244,0.0269,0.0263,0.0259,0.0255,0.0258,0.0292,0.0291,0.0305,0.0305,0.0305,0,0,-0.0668,-0.0593,-0.0563,-0.0455,-0.0395,-0.0339,-0.0294,-0.0236,-0.0193,-0.0117,-0.0049,0.0005,0.0091,0.0153,0.0185,0.0198,0.0259,0.0255,0.0251,0.0257,0.0292,0.0291,0.0289,0.0305,0.0305,0.0305,0,0,-0.0678,-0.0616,-0.0572,-0.0513,-0.0424,-0.0365,-0.0355,-0.0253,-0.0214,-0.0145,-0.0086,-0.0034,0.0076,0.0135,0.0179,0.019,0.0232,0.0209,0.0188,0.022,0.0219,0.0218,0.0223,0.0223,0.0211,0.0211,0.0211,0,-0.0716,-0.0628,-0.0554,-0.0499,-0.0453,-0.0382,-0.0336,-0.0283,-0.0177,-0.0147,-0.0134,0.0006,0.0068,0.0145,0.0148,0.0181,0.0196,0.0198,0.0213,0.0213,0.0214,0.0219,0.022,0.0208,0.0208,0.0209,0.0209,0,-0.0679,-0.0619,-0.0594,-0.0494,-0.0445,-0.0395,-0.0313,-0.0273,-0.0229,-0.0172,-0.0102,-0.0024,0.0058,0.008,0.0124,0.0164,0.0169,0.0196,0.022,0.0208,0.0214,0.0217,0.0203,0.0204,0.0205,0.0206,0,0,-0.0734,-0.0594,-0.0586,-0.0539,-0.0436,-0.0388,-0.0335,-0.0255,-0.0222,-0.0151,-0.0104,-0.0014,0.0012,0.0062,0.0113,0.0141,0.0145,0.0165,0.0168,0.0159,0.0195,0.0174,0.0175,0.0173,0.0174,0.0174,0.0188,0,-0.0729,-0.063,-0.0562,-0.049,-0.0434,-0.0366,-0.032,-0.0252,-0.0197,-0.0141,-0.0081,-0.0018,0.0011,0.0042,0.0073,0.0138,0.0154,0.0138,0.0218,0.022,0.0195,0.0178,0.0157,0.0166,0.0191,0.0191,0.0191,0,-0.071,-0.0641,-0.0564,-0.0467,-0.044,-0.04,-0.0321,-0.0269,-0.019,-0.0152,-0.0097,-0.0045,0.0014,0.0031,0.0114,0.0101,0.0138,0.0175,0.0177,0.0188,0.0205,0.0189,0.017,0.0171,0.0196,0.0196,0.0195,0,-0.0757,-0.0646,-0.0585,-0.0548,-0.0433,-0.0406,-0.0357,-0.0277,-0.0234,-0.0165,-0.0135,-0.0061,-0.002,0.0037,0.0107,0.0113,0.0183,0.0206,0.0216,0.0215,0.0229,0.0227,0.0216,0.0251,0.0251,0.0251,0.0251,0,-0.0758,-0.0713,-0.0605,-0.0568,-0.0515,-0.0438,-0.0388,-0.0333,-0.0263,-0.0214,-0.0151,-0.0106,-0.0016,0.004,0.0095,0.0156,0.0174,0.0206,0.022,0.0201,0.0197,0.0227,0.0228,0.0251,0.0251,0.0251,0.0251,0,-0.0802,-0.0728,-0.0657,-0.0554,-0.0527,-0.0493,-0.0405,-0.0366,-0.0308,-0.0247,-0.0228,-0.0137,-0.0068,0.0008,0.0102,0.014,0.0197,0.0217,0.017,0.0178,0.0185,0.0183,0.0193,0.0198,0.0228,0.0228,0.0227,0,-0.0808,-0.0771,-0.0665,-0.0627,-0.0579,-0.052,-0.0475,-0.0397,-0.0353,-0.026,-0.0233,-0.0159,-0.0095,0.0012,0.0086,0.0159,0.0182,0.018,0.0193,0.0172,0.0182,0.018,0.0184,0.0176,0.0175,0.0175,0.0174,0,-0.0825,-0.079,-0.0727,-0.0652,-0.06,-0.0537,-0.0471,-0.0444,-0.0353,-0.0307,-0.0235,-0.0187,-0.009,-0.0018,0.0064,0.0115,0.016,0.0169,0.0176,0.0157,0.0128,0.0144,0.016,0.0169,0.017,0.017,0.017,0.0171,-0.0848,-0.0813,-0.0732,-0.0665,-0.0607,-0.0548,-0.0506,-0.0443,-0.0382,-0.0298,-0.0256,-0.0185,-0.0107,0.0008,0.0057,0.0114,0.0128,0.0137,0.014,0.0141,0.0136,0.0118,0.0129,0.0129,0.013,0.013,0.013,0,-0.0862,-0.0807,-0.0745,-0.0655,-0.0602,-0.0565,-0.0491,-0.0449,-0.0387,-0.0318,-0.0257,-0.0175,-0.0105,-0.0025,0.005,0.008,0.0103,0.0098,0.0097,0.0108,0.0119,0.0106,0.0078,0.0078,0.0078,0.0078,0.0078,0.0078,-0.0862,-0.08,-0.0756,-0.0665,-0.061,-0.054,-0.05,-0.0445,-0.0389,-0.0301,-0.0242,-0.019,-0.0117,-0.0036,0.0031,0.0052,0.0078,0.0066,0.0094,0.0103,0.0107,0.0111,0.0099,0.0071,0.0071,0.0079,0.0079,0.0079]},{"header":{"parameterUnit":"m.s-1","parameterCategory":1,"la1":30.2991,"la2":30.254,"lo1":-89.0895,"lo2":-89.0444,"dy":0.0017,"dx":0.0017,"nx":28,"ny":28,"refTime":"2025-05-19T03:00:00:Z","depth":0,"parameterNumber":3,"parameterNumberName":"V-component_of_WINDS"},"data":[0,0,0,0,0,0,0,0,0,0,0,0,0,0,0,0,0,0,0,0,0,0,0,0,0,0,0,0,0,0,0,0,0,0,0,0,0,0,0,0,0,0,0,0,0,0,0,0,0,0,0,0,0,0,0,0,0,0,5.0527,5.0527,0,5.0476,5.0475,5.0475,5.044,5.044,5.044,5.044,5.0382,5.038,5.0379,0,0,0,0,0,0,0,0,0,0,0,0,0,5.0591,5.059,5.0527,5.0527,5.0526,5.0476,5.0475,5.0475,5.044,5.044,5.044,5.044,5.0382,5.0381,5.0379,0,0,0,0,0,0,0,0,0,0,0,0,0,5.0554,5.059,5.0527,5.0503,5.05,5.0476,5.0475,5.0474,5.044,5.044,5.044,5.0439,5.0383,5.0381,5.0379,5.0373,0,0,5.0373,5.0372,0,0,0,0,0,0,0,0,5.0556,5.0552,5.0507,5.0505,5.0502,5.0464,5.0477,5.044,5.0441,5.0463,5.044,5.0439,5.0409,5.0405,5.0396,5.037,5.0368,5.0372,5.0371,5.037,5.037,0,0,0,0,0,0,0,5.0559,5.0554,5.0507,5.0507,5.0503,5.0493,5.0488,5.047,5.0438,5.0461,5.0458,5.0453,5.0407,5.0398,5.0394,5.0367,5.0373,5.0371,5.0369,5.0369,5.0336,5.0336,0,0,0,0,0,0,5.0566,5.0556,5.0508,5.0505,5.0529,5.0492,5.0486,5.0477,5.0439,5.0433,5.0453,5.0452,5.0401,5.0397,5.0392,5.0384,5.037,5.0369,5.0367,5.0336,5.0336,5.0336,0,0,0,0,0,0,5.0568,5.0562,5.051,5.053,5.0523,5.0492,5.0481,5.0476,5.0466,5.0433,5.0427,5.045,5.0401,5.0395,5.0379,5.0382,5.0368,5.0366,5.0335,5.0336,5.0336,5.0368,0,0,0,0,0,0,5.057,5.0563,5.0561,5.053,5.0522,5.0499,5.0481,5.0475,5.0463,5.0461,5.0428,5.0422,5.04,5.0382,5.0377,5.0379,5.0364,5.0335,5.0335,5.0336,5.0366,5.0369,5.0372,0,0,0,0,0,5.0572,5.057,5.0561,5.0556,5.0519,5.05,5.0495,5.0471,5.0464,5.0461,5.044,5.0423,5.0382,5.0381,5.0375,5.0376,5.0335,5.0335,5.0336,5.0365,5.0369,5.0372,0,0,0,0,0,0,5.06,5.0566,5.0555,5.0544,5.0525,5.0494,5.049,5.0476,5.0457,5.0455,5.0425,5.0418,5.0405,5.0389,5.0388,5.0369,5.0356,5.0356,5.038,5.0384,5.0386,5.039,5.0363,0,0,0,0,0,5.0605,5.0594,5.0564,5.0557,5.0548,5.0521,5.0511,5.0496,5.0474,5.0465,5.0443,5.0421,5.0404,5.0393,5.0374,5.0364,5.0356,5.0362,5.0364,5.0367,5.0367,5.0361,5.0363,5.0339,5.0339,5.0339,0,0,5.0615,5.0595,5.0589,5.0562,5.0546,5.0533,5.0514,5.0501,5.0492,5.0462,5.0447,5.043,5.0404,5.0391,5.0384,5.0377,5.0372,5.0368,5.037,5.0368,5.0362,5.0364,5.0366,5.0339,5.0339,5.0339,0,0,5.0627,5.0611,5.0604,5.0589,5.0565,5.0548,5.0546,5.0517,5.0506,5.049,5.0469,5.0456,5.0426,5.0409,5.0396,5.0404,5.0388,5.0399,5.0413,5.0408,5.041,5.0411,5.0415,5.0417,5.0399,5.0399,5.0399,0,5.0642,5.0624,5.0602,5.0591,5.058,5.0556,5.0548,5.0534,5.0505,5.0497,5.049,5.0454,5.0434,5.0417,5.042,5.041,5.0407,5.0402,5.0412,5.0413,5.0414,5.0417,5.0419,5.0401,5.0401,5.04,5.04,0,5.0644,5.0632,5.0629,5.0605,5.0593,5.0584,5.0559,5.055,5.0536,5.0518,5.0503,5.048,5.0457,5.0452,5.0436,5.0433,5.043,5.0418,5.0404,5.0418,5.0421,5.0422,5.0403,5.0402,5.0402,5.0402,0,0,5.0671,5.0636,5.0636,5.0625,5.0598,5.0587,5.0577,5.0557,5.055,5.0531,5.0522,5.0499,5.0488,5.0474,5.0456,5.0452,5.0461,5.044,5.0439,5.0445,5.0457,5.0467,5.0469,5.045,5.045,5.045,5.046,0,5.068,5.0662,5.0643,5.0631,5.062,5.0598,5.0589,5.0571,5.0555,5.0543,5.0524,5.0509,5.0495,5.0487,5.0481,5.0461,5.0463,5.046,5.044,5.044,5.0448,5.047,5.0479,5.0489,5.046,5.046,5.0461,0,5.0687,5.0672,5.066,5.0636,5.0631,5.0623,5.0604,5.0593,5.0572,5.0561,5.0547,5.0529,5.0516,5.0505,5.0488,5.0486,5.0477,5.0466,5.0466,5.0463,5.0451,5.0468,5.0492,5.0493,5.0462,5.0462,5.0461,0,5.0709,5.0685,5.0676,5.0667,5.0638,5.0634,5.0621,5.0601,5.0591,5.0574,5.0567,5.0548,5.0538,5.0523,5.0501,5.0494,5.0486,5.0472,5.0476,5.0476,5.0474,5.0475,5.0498,5.0468,5.0468,5.0468,5.0468,0,5.072,5.0714,5.0686,5.068,5.0672,5.065,5.0643,5.0628,5.061,5.06,5.0579,5.057,5.0541,5.0529,5.0511,5.05,5.0495,5.0485,5.048,5.0487,5.0488,5.048,5.0479,5.0469,5.0469,5.0469,5.0469,0,5.0743,5.0724,5.0712,5.0687,5.068,5.0676,5.0654,5.0647,5.0631,5.0619,5.0615,5.0589,5.0574,5.055,5.0526,5.0515,5.0506,5.0499,5.0514,5.0511,5.0517,5.0517,5.0535,5.0537,5.0506,5.0507,5.0507,0,5.0751,5.0747,5.0722,5.0715,5.0704,5.0693,5.0683,5.0661,5.0652,5.0629,5.0625,5.0609,5.0594,5.057,5.0548,5.0531,5.0522,5.053,5.0519,5.0527,5.0523,5.0524,5.0524,5.0533,5.0533,5.0533,5.0534,0,5.0769,5.076,5.0748,5.0734,5.0724,5.071,5.0696,5.0691,5.0665,5.0656,5.0641,5.063,5.0608,5.0592,5.0572,5.0557,5.0541,5.0538,5.0538,5.0544,5.0554,5.055,5.0522,5.0537,5.0537,5.0536,5.0536,5.0536,5.0785,5.0781,5.0763,5.0751,5.0738,5.0726,5.0719,5.0703,5.0691,5.0673,5.066,5.0646,5.0626,5.0598,5.0585,5.0573,5.0566,5.0566,5.0566,5.0566,5.0569,5.0556,5.0569,5.0569,5.0569,5.0569,5.0569,0,5.0802,5.0791,5.078,5.0762,5.0752,5.074,5.0724,5.0716,5.0705,5.0689,5.0677,5.066,5.0645,5.0623,5.0606,5.0601,5.0593,5.0597,5.0597,5.0594,5.0576,5.0578,5.0604,5.0604,5.0604,5.0604,5.0604,5.0604,5.081,5.0802,5.0792,5.0778,5.0765,5.0753,5.0745,5.0734,5.0721,5.0705,5.0693,5.0679,5.0661,5.0643,5.0628,5.0622,5.0617,5.0623,5.0615,5.0598,5.0595,5.0592,5.0594,5.0622,5.0622,5.0634,5.0634,5.0634]}]]